Weather observations for the past three days for
Manassas, Manassas Regional Airport/Harry P. Davis Field
Metric (Imperial)
Date Time (edt) Wind (kph) Vis. (km) Weather Sky Cond. Temperature (ºC) Relative Humidity Wind Chill (°C) Heat Index (°C) Pressure Precipitation (cm)
Air Dwpt 6 hour altimeter (cm) sea level (mb) 1 hr 3 hr 6 hr
Max. Min.
15 07:56 Calm 16.09 Fair CLR 26.7 22.2 26.7 22.8 76% 29 76.12 1015.3
15 06:56 Calm 16.09 Fair CLR 23.3 22.8 97% 76.12 1015.2
15 05:56 Calm 16.09 Mostly Cloudy BKN080 22.8 22.2 96% 76.1 1014.7
15 04:56 Calm 16.09 Fair CLR 22.8 22.2 96% 76.02 1013.9
15 03:56 Calm 16.09 Fair CLR 23.9 22.2 90% 23 76 1013.5
15 02:56 Calm 16.09 Fair CLR 25 22.2 85% 26 75.97 1013.2
15 01:56 S 7 16.09 Fair CLR 25.6 22.8 30.6 25 85% 27 76 1013.6
15 00:56 S 6 16.09 Fair CLR 27.2 22.8 77% 30 76.02 1013.6
14 23:56 S 6 16.09 Fair CLR 27.8 22.2 72% 30 76.02 1013.8
14 22:56 SW 7 16.09 A Few Clouds FEW100 27.8 22.2 72% 30 76.02 1013.9
14 21:56 S 6 9.66 Fair CLR 26.7 22.8 79% 29 76.05 1014.3
14 20:56 Calm 16.09 Fair CLR 27.8 22.8 74% 31 76.07 1014.6
14 19:56 S 7 16.09 Fair CLR 30.6 22.2 35.6 30.6 61% 34 76.07 1014.7
14 18:56 S 13 16.09 Fair CLR 33.3 21.7 51% 37 76.07 1014.7
14 17:56 SW 13 16.09 Fair CLR 35 19.4 40% 37 76.1 1014.7
14 16:56 S 13 16.09 Fair CLR 35.6 19.4 39% 38 76.1 1014.7
14 15:56 S 15 16.09 Fair CLR 35.6 20 40% 38 76.1 1014.9
14 14:56 S 9 16.09 Fair CLR 35.6 18.9 37% 38 76.17 1015.9
14 13:56 SW 15 16.09 Fair CLR 34.4 20.6 35 25 44% 37 76.25 1016.9 0.03
14 12:56 S 7 16.09 A Few Clouds FEW060 33.9 21.7 49% 38 76.3 1017.4
14 11:56 W 11 16.09 A Few Clouds FEW046 33.3 22.8 54% 38 76.35 1018.1
14 10:56 Calm 16.09 Fair CLR 31.7 23.3 61% 37 76.38 1018.5 0.03 0.03
14 09:56 S 7 16.09 Fair CLR 30 24.4 72% 36 76.38 1018.8
14 08:56 SW 7 16.09 Fair CLR 27.8 23.9 79% 32 76.38 1018.7
14 07:56 Calm 16.09 Fair CLR 25 23.9 25 22.2 94% 26 76.38 1018.8
14 06:56 Calm 16.09 Fair CLR 23.3 23.3 100% 76.38 1018.6
14 05:56 Calm 16.09 Fair CLR 23.3 22.8 97% 76.38 1018.5
14 04:56 Calm 16.09 Fair CLR 22.8 22.8 100% 76.38 1018.6
14 03:56 Calm 16.09 Fair CLR 23.3 23.3 100% 76.38 1018.6
14 02:56 Calm 16.09 Fair CLR 24.4 23.3 94% 24 76.38 1018.7
14 01:56 S 6 16.09 Mostly Cloudy BKN085 23.9 23.9 30.6 23.9 100% 22 76.43 1019.2
14 00:56 S 6 16.09 Fair CLR 25 23.9 94% 26 76.45 1019.6
13 23:56 Calm 16.09 Fair CLR 25.6 23.3 87% 27 76.45 1019.8
13 22:56 Calm 16.09 Fair CLR 26.1 23.3 85% 28 76.45 1019.7
13 21:56 S 6 16.09 Partly Cloudy SCT110 26.7 24.4 87% 30 76.45 1019.6
13 20:56 Calm 16.09 Mostly Cloudy BKN110 26.7 23.9 85% 29 76.45 1019.4
13 19:56 S 6 16.09 Fair CLR 30.6 22.2 33.3 30.6 61% 34 76.43 1019.3
13 18:56 SE 7 16.09 Fair CLR 31.7 22.2 57% 36 76.4 1018.9
13 17:56 Vrbl 6 16.09 Fair CLR 32.2 22.8 58% 37 76.4 1018.9
13 16:56 S 9 12.87 A Few Clouds FEW047 32.8 23.3 57% 38 76.4 1018.9
13 15:56 NE 11 14.48 Fair CLR 33.3 22.2 52% 38 76.43 1019.4
13 14:56 Calm 14.48 Mostly Cloudy BKN046 BKN050 31.7 22.2 57% 36 76.48 1019.9
13 13:56 Vrbl 7 16.09 Mostly Cloudy BKN042 31.1 22.8 31.1 22.8 61% 35 76.5 1020.2
13 12:56 Calm 16.09 Mostly Cloudy FEW028 BKN040 29.4 22.8 68% 33 76.56 1021.0
13 11:56 E 6 16.09 Partly Cloudy SCT028 28.3 22.8 72% 32 76.61 1021.5
13 10:56 Calm 16.09 Mostly Cloudy BKN023 27.2 23.3 79% 30 76.66 1022.1
13 09:56 N 6 16.09 Partly Cloudy SCT010 26.7 22.8 79% 29 76.66 1022.2
13 08:56 Calm 16.09 Mostly Cloudy BKN004 23.9 23.3 96% 23 76.63 1022.0
13 07:56 E 7 9.66 Light Rain FEW008 BKN033 OVC070 23 0 22.8 22.2 0% 76.63 1022.0
13 06:56 Calm 4.83 Light Rain FEW007 BKN035 OVC070 23 0 0% 76.66 1022.3
13 05:56 Calm 6.44 Rain OVC004 22.2 22.2 100% 76.63 1022.1
13 04:56 SE 6 16.09 Overcast OVC004 22.2 22.2 100% 76.61 1021.7
13 03:56 Calm 16.09 Overcast BKN004 OVC055 22.2 22.2 100% 76.56 1021.1
13 02:56 S 6 16.09 Overcast OVC010 22.2 22.2 100% 76.61 1021.5
13 01:56 Calm 16.09 Overcast BKN012 OVC019 22.8 22.2 25 22.8 96% 76.63 1022.1
13 00:56 S 11 16.09 Overcast OVC008 22.8 22.8 100% 76.66 1022.5
12 23:56 SE 15 16.09 Overcast OVC008 23.3 23.3 100% 76.66 1022.3
12 22:56 Calm 11.27 A Few Clouds FEW110 23.3 23.3 100% 76.61 1021.7
12 21:56 S 7 9.66 Overcast FEW012 BKN020 OVC033 23.3 23.3 100% 76.63 1022.2
12 20:56 W 7 4.83 Heavy Rain SCT015 BKN021 OVC040 23.9 23.3 96% 23 76.66 1022.4
12 19:56 NW 6 16.09 Overcast SCT023 SCT033 OVC047 25 22.8 26.7 24.4 88% 26 76.63 1022.1
12 18:56 W 6 16.09 Overcast OVC070 25.6 22.8 85% 27 76.63 1021.9
12 17:56 SW 6 16.09 Overcast BKN035 OVC085 26.7 22.8 79% 29 76.61 1021.7
12 16:56 S 6 16.09 Mostly Cloudy SCT021 BKN120 26.7 21.7 74% 29 76.61 1021.5
12 15:56 E 6 16.09 Partly Cloudy SCT019 26.1 22.2 79% 28 76.58 1021.3
12 14:56 E 7 16.09 Light Rain BKN016 BKN021 OVC048 25 22.8 88% 26 76.63 1022.1
12 13:56 Calm 16.09 Mostly Cloudy BKN011 24.4 22.2 24.4 21.7 88% 25 76.66 1022.3
12 12:56 Calm 16.09 Fair CLR 23.3 21.7 91% 76.63 1022.0
12 11:56 SE 7 14.48 Light Rain FEW009 BKN031 OVC047 22.8 22.2 96% 76.68 1022.6
12 10:56 N 11 2.01 Heavy Rain FEW016 SCT023 OVC060 21.7 21.1 96% 76.68 1022.7
12 09:56 W 6 14.48 Light Rain SCT050 BKN070 OVC090 22.8 21.7 94% 76.66 1022.3
12 08:56 N 9 16.09 Light Rain FEW044 SCT075 BKN100 23.3 20.6 85% 76.58 1021.3
Date Time (edt) Wind (kph) Vis. (km) Weather Sky Cond. Air Dwpt Max. Min. Relative Humidity Wind Chill (°C) Heat Index (°C) altimeter (cm) sea level (mb) 1 hr 3 hr 6 hr
6 hour
Temperature (ºC) Pressure Precipitation (cm)